Weather in Orlando

United States     28°32′04″N   81°24′42″W
temp.,
°C
wind,
m/s
gust,
m/s
humid.,
%
clouds,
%
prec.,
mm/h
press.,
hPa
HPBL,
m
23 may, mon
mon2323:00+27se577799 0.0 1021445
02:00+26se4882100 0.0 1020460
05:00+24se388797 0.0 1019364
08:00+25se488032 0.0 1020518
11:00+30sse45477 0.0 10201357
14:00+34s343329 0.0 10182094
17:00+35ssw34306 0.0 10162723
20:00+29ese795927 0.0 1017539
24 may, tue
tue2423:00+26se58715 0.0 1018505
02:00+25se49775 0.0 1017470
05:00+24se48804 0.0 1016388
08:00+25sse47755 0.0 1018449
11:00+29sse454813 0.0 10181376
14:00+33se453472 0.0 10172253
17:00+33ese6631100 0.0 10151907
20:00+28ese7955100 0.0 1016545
25 may, wed
wed2523:00+25ese61074100 0.0 1018635
02:00+25se4975100 0.0 1018583
05:00+24se388383 0.0 1018510
08:00+24se4978100 0.0 1018714
11:00+30se5746100 0.0 10191611
14:00+33ese6835100 0.0 10172410
17:00+32ese7838100 0.0 10162007
20:00+28ese7116164 0.0 1017745
26 may, thu
thu2623:00+25ese61174100 0.0 1019690
02:00+24se4977100 0.0 1019626
05:00+24ese3878100 0.0 1018527
08:00+25se4873100 0.0 1019731
11:00+29se6749100 0.0 10191441
14:00+32sse5736100 0.0 10182142
17:00+29s3549100 0.0 10171215
20:00+27ese5863100 0.0 1017481
27 may, fri
fri2723:00+25se5107415 0.0 1017490
02:00+24sse49825 0.0 1016424
05:00+23sse388799 0.0 1016326
08:00+24sse478383 0.0 1017400
11:00+29s4657100 0.0 10161414
14:00+33ssw453737 0.0 10142407
17:00+32w564093 0.1 10121651
20:00+29wsw355559 0.3 1013558